Meteo Giornale » Osservazioni meteo Stati Uniti (USA) » Concord

ore: 15:55 - Osservazioni Meteo Concord
Lat. 35° 23' N Lon. 80° 42' W Alt. 210 metri s.l.m.

nuvoloso

34 °C

Nuvoloso

Temp. 24 Ore

21 °C

34 °C

Nord-Est

7.4 Km/h

Dew point 20 °C

Umidità 43 %

Visibilità  10 Km

Il sole sorge alle ore 06:55

Il sole tramonta alle ore 19:50

Data e Ora Cielo e Fenomeni T °C DP °C Um. % Pres. hPa Vis. km Vento km/h
Oggi h: 15:55 nuvoloso Nuvoloso 34 20 43 1019 10 NE 7.4
Oggi h: 14:50 molto_nuvoloso Molto Nuvoloso 33 21 49 1019 10 N 0
Oggi h: 13:50 nuvoloso Nuvoloso 33 21 49 1020 10 N 0
Oggi h: 12:50 sereno Sereno 33 21 49 1020 10 N 0
Oggi h: 10:50 sereno Sereno 31 22 58 1021 10 N 0
Oggi h: 09:50 sereno Sereno 28 23 74 1021 10 N 0
Oggi h: 08:50 sereno Sereno 25 23 88 1021 10 N 0
Oggi h: 07:50 sereno Sereno 23 22 94 1021 10 N 0
Oggi h: 06:15 sereno Sereno 21 21 100 1020 10 N 0
Oggi h: 05:55 sereno Sereno 22 21 94 1020 11 N 0
Oggi h: 05:35 sereno Sereno 21 21 100 1020 11 N 0
Oggi h: 05:15 sereno Sereno 21 21 100 1020 10 N 0
Oggi h: 04:55 sereno Sereno 22 21 94 1020 10 N 0
Oggi h: 04:35 sereno Sereno 22 21 94 1020 10 N 0
Oggi h: 04:15 sereno Sereno 21 21 100 1020 10 N 0
Oggi h: 03:55 sereno Sereno 22 21 94 1020 10 N 0
Oggi h: 03:35 sereno Sereno 22 21 94 1020 10 N 0
Oggi h: 03:10 sereno Sereno 22 21 94 1020 10 N 0
Oggi h: 02:55 sereno Sereno 22 21 94 1020 10 N 0
Oggi h: 02:35 sereno Sereno 22 21 94 1020 10 N 0
Oggi h: 02:15 sereno Sereno 22 21 94 1020 10 N 0
Oggi h: 01:55 sereno Sereno 22 22 100 1020 10 N 0
Oggi h: 01:35 sereno Sereno 22 21 94 1020 10 N 0
Oggi h: 01:15 sereno Sereno 22 21 94 1020 10 N 0
Oggi h: 00:55 sereno Sereno 22 21 94 1021 10 N 0
Oggi h: 00:35 sereno Sereno 22 21 94 1021 10 N 0
Oggi h: 00:15 sereno Sereno 22 21 94 1020 10 N 0
Ieri h: 23:55 sereno Sereno 23 22 94 1020 10 N 0
Ieri h: 23:35 sereno Sereno 23 21 88 1020 10 N 0
Ieri h: 23:15 sereno Sereno 23 22 94 1020 10 N 0
Ieri h: 22:55 sereno Sereno 23 22 94 1020 10 N 0
Ieri h: 21:50 sereno Sereno 26 22 78 1020 10 N 0
Ieri h: 20:50 sereno Sereno 27 22 74 1019 10 N 0
Ieri h: 19:50 sereno Sereno 28 23 74 1019 10 N 0
Ieri h: 17:50 nuvoloso Nuvoloso 32 21 52 1019 10 S 14.8
Ieri h: 16:50 nuvoloso Nuvoloso 32 21 52 1020 10 S/SO 7.4